Showing default

SPOT 7, 40053

Orbit data source: Space-Track

SPOT 7, 40053 is a payload satellite owned by CNES (AZ) in SSO that was launched on Mon, 30 Jun 2014 UTC via a PSLV launch vehicle from the Sirharikota (SRI). Payload-class satellites include a variety of spacecraft equipped with specific instruments for various scientific and technological missions. These include communications satellites like Starlink; space stations such as the ISS; scientific satellites like the Hubble; Earth observation satellites from companies like Planet Labs, Umbra, and HawkEye 360; GPS; miniature CubeSats for education and research; and military/defense satellites.

Loading next visibility...
Identifier
40053, 2014-034A
Orbit
SSO
Country
Flag of UnknownUnknown / AZER
Related business
Manufacturer
Airbus (UK)
Mission
Operational Commercial Imaging
Bus & Motor
ASTROSAT-500L, AOCS
Mass
712 kg wet, ~712 kg dry
Launch date (UTC)
2014-06-30 (12 years ago)
Launch vehicle
PSLV
Launch site
Sirharikota (SRI)
Object type
Payload
Rocket body
Debris
Shape & HBR
Hex Cyl + 3 Pan, 3.2 m
Radar Cross Section
9.390 m², Large (>1 m²)

Expand to show TLE details & history
Last TLE update: 5 hours ago

TLE from 5 hours ago
0 SPOT 7
1 40053U 14034A   26038.18386903  .00000741  00000-0  16092-3 0  9994
2 40053  98.0806 103.9362 0001062  88.3480 271.7843 14.60824362618158
Epoch: 2026-02-07T04:24Z
TLE epoch observation values (Epoch: 2026-02-07T04:24:46.284Z)
Latitude
0.00004°
Longitude
-99.5677°
Altitude
693.48 km
Speed
7.509 km/s
True Right ascension
06h 55m 44s
True Declination
0° 00' 00"
Sunlit
Object was in full shadow at epoch
Visualization orbit readout
Latitude
Unknown
Longitude
Unknown
Altitude
Unknown
Speed
Unknown
Apparent Right ascension
Unknown
Apparent Declination
Unknown
Sunlit
N/A
Visualization observer readout
Local Sidereal Time
11:13:35
Azimuth
Unknown
Elevation
Unknown
Doppler factor
Unknown
Orbital elements
Apogee altitude
688.338 km
Perigee altitude
686.838 km
Semi-major axis
7,065.725 km
Eccentricity
0.00011
Inclination
98.0806°
RAAN
103.9362°
Arg. of periapsis
88.348°
True anomaly
271.77214°
Mean anomaly
271.7843°
Eccentric anomaly
271.77822°
Mean motion
3.65433 °/min
Orbital period
98.51 mins
BSTAR
0.00016092
Loading maneuver chart data...
Computing Atmospheric mass density...
Loading historical data...
Loading historical data...
Loading historical data...
Loading historical data...
Loading historical data...
Loading historical data...
Loading historical data...
Other satellites on launch #34 in the year 2014 (2014-06-30 UTC)

Documentation

Showing up to 5 results
|